User: anonymous   Login
Location: Glion
(46.4330°N, 6.9246°E)
Time: 19:13:08
(UTC+00:00)
Language:

SL-4 R/B - Orbit

View from above orbital plane
View from above orbital plane
View from above satellite
View from above satellite

Ground track
Ground track

The orbit data is extracted from the following two-line orbital elements,

1 39679U 14021B   21136.02767234  .00000496  00000-0  41715-4 0  9997
2 39679  51.6172   3.5115 0170541  18.8313 341.8863 15.06947822389169
Epoch (UTC): 16 May 2021 00:39:50
Eccentricity: 0.0170541
inclination: 51.6172°
perigee height: 427 km
apogee height: 663 km
right ascension of ascending node: 3.5115°
argument of perigee: 18.8313°
revolutions per day: 15.06947822
mean anomaly at epoch: 341.8863°
orbit number at epoch: 38916

The dashed part of the orbit path shows where the satellite is in the earth's shadow,  

DLR